CUBESAT XI-IV (CO-57)

Last updated on Mon Sep 21 2026 00:03:14 GMT+0000 (Coordinated Universal Time)

1 27848U 03031J 26263.25782538 .00000142 00000+0 81294-4 0 9999 2 27848 98.6806 270.2739 0008362 291.5056 68.5231 14.23661830204909
UTC large
Height (km)
Speed (km/s)
/
Latitude / Longitude
Inclination (degrees)
Orbital Period (minutes)
Azimuth
Elevation
Range (km)
Doppler Factor

Next 0 passes for location: London (51.5072 / 0.1276)

No passes found over London.
CUBESAT XI-IV (CO-57)